Regional Weather Roundup
Issued by NWS

Home | Current Version | Previous Version | Text Only | Print | Product List | Glossary Off
Versions: 1 2 3 4 5 6 7 8 9 10 11 12 13 14 15 16 17 18 19 20 21 22 23 24 25 26 27 28

000
ASUS45 KSLC 210910
RWRUT

UTAH REGIONAL WEATHER ROUNDUP
NATIONAL WEATHER SERVICE SALT LAKE CITY UT
300 AM MDT SAT APR 21 2018

UTZ001>011-023>025-211000-

NORTHERN UTAH

CITY           SKY/WX    TMP DP  RH WIND       PRES   REMARKS
BRIGHAM CITY   CLEAR     46  30  53 N6        30.12S
HILL AFB       CLEAR     47  30  51 CALM      30.12R
LOGAN          CLEAR     46  31  55 S3        30.13S
OGDEN          CLEAR     43  32  65 S7        30.11S
SALT LAKE CITY CLEAR     48  38  68 SE6       30.12R
TOOELE VALLEY  CLEAR     37  32  81 S7        30.14S WCI  32
WENDOVER       NOT AVBL
HEBER CITY       N/A     36  28  75 CALM      30.13R
WEST JORDAN    CLEAR     46  33  61 SW6       30.14R

$$

UTZ011>015-024>027-211000-

CENTRAL/NORTHEAST UTAH

CITY           SKY/WX    TMP DP  RH WIND       PRES   REMARKS
PROVO AIRPORT  CLEAR     42  39  89 E3        30.16R
MOAB/CANYONLAN MOCLDY    45  44  97 W3        30.08S
DELTA          CLEAR     36  36 100 E5        30.17S WCI  32
PRICE          CLEAR     34  34 100 NE3       30.11F
RICHFIELD      CLEAR     32  32 100 CALM      30.20R
ROOSEVELT      FOG       36  34  93 CALM      30.15R VSB 1/2
VERNAL         CLOUDY    40  39  97 CALM      30.12S

$$

UTZ013>016-019>022-027-211000-

SOUTHERN UTAH

CITY           SKY/WX    TMP DP  RH WIND       PRES   REMARKS
BRYCE CANYON   CLEAR     33  28  81 W12       30.21R WCI  24
CEDAR CITY     CLEAR     35  33  92 SW5       30.19R WCI  31
MILFORD        CLEAR     37  37 100 S3        30.18S
ST GEORGE      SUNNY     47  33  58 SE6       30.13S
HANKSVILLE     PTCLDY    43  36  75 CALM      30.13F
KANAB          CLEAR     37  27  65 NW2       30.21S
BLANDING         N/A     38  29  70 NW3       30.15F

$$

REGIONAL REPORTS     COLORADO/ARIZONA

CITY           SKY/WX    TMP DP  RH WIND       PRES   REMARKS
CRAIG, CO      CLOUDY    38  33  82 VRB3      30.07R
GRAND JUNCTION LGT RAIN  41  39  93 N3        30.08S
RIFLE, CO      CLOUDY    35  35 100 CALM      30.09R
MONTROSE, CO   CLOUDY    37  35  92 SE9       30.09S WCI  30
CORTEZ, CO     CLOUDY    38  29  70 E3        30.09F
COLORADO CITY    N/A     34  32  93 CALM      30.19F
PAGE, AZ       CLEAR     45  37  73 CALM      30.11F
GRAND CANYON   CLEAR     24  23  96 NE3       30.22S
KINGMAN, AZ    CLEAR     54  22  28 N3        30.13S
FLAGSTAFF, AZ  CLEAR     26  23  88 CALM      30.20F

$$

REGIONAL REPORTS    NEVADA/IDAHO/WYOMING

CITY           SKY/WX    TMP DP  RH WIND       PRES   REMARKS
LAS VEGAS, NV  CLEAR     64  34  32 SW6       30.07S
ELY, NY        CLEAR     29  16  58 S9        30.24S WCI  20
ELKO, NV       CLEAR     34  26  72 CALM      30.22F
POCATELLO, ID  CLEAR     50  21  32 SW13      30.15S
BURLEY, ID     CLEAR     43  22  43 SW14      30.13F
FORT BRIDGER,    N/A     33  33 100 S3        30.20R
EVANSTON, WY   CLEAR     40  24  53 CALM      30.17S
ROCK SPRINGS,  CLOUDY    37  31  78 CALM      30.17S
KEMMERER, WY   CLEAR     32  28  86 N8        30.17S WCI  25

$$




USA.gov is the U.S. government's official web portal to all federal, state and local government web resources and services.